WMT722 LRTR-LIBD

Flight info

Callsign WMT722
Flight time 1h 20m
Altitude 36000
Route MAVIT DCT LASTI DCT PINUK DCT CRAYE DCT ENOXA
Aircraft A321/M-SDE1E2E3FGIJ1J4RWXY/LB1

Departure

Time 2026-05-09 13:55
Airport Timișoara Traian Vuia International Airport (LRTR)

Arrival

Time 2026-05-09 15:15
Airport Bari Karol Wojtyła International Airport (LIBD)
Time Latitude Longitude Altitude Speed Heading
2026-05-09 13:25 45.81061 21.32141 345 ft 0 kts 199°
2026-05-09 13:41 45.81073 21.32147 345 ft 2 kts 198°
2026-05-09 13:41 45.81083 21.32152 345 ft 0 kts 199°
2026-05-09 13:42 45.81097 21.32155 345 ft 2 kts 166°
2026-05-09 13:42 45.81111 21.32146 345 ft 2 kts 134°
2026-05-09 13:42 45.81118 21.32133 345 ft 0 kts 111°
2026-05-09 13:42 45.81120 21.32123 345 ft 0 kts 108°
2026-05-09 13:43 45.81120 21.32122 345 ft 0 kts 108°
2026-05-09 13:43 45.81120 21.32123 345 ft 0 kts 108°
2026-05-09 13:46 45.81113 21.32152 345 ft 7 kts 108°
2026-05-09 13:46 45.81084 21.32273 346 ft 17 kts 108°
2026-05-09 13:46 45.81054 21.32393 346 ft 9 kts 108°
2026-05-09 13:46 45.81081 21.32475 346 ft 9 kts 52°
2026-05-09 13:47 45.81076 21.32572 347 ft 10 kts 107°
2026-05-09 13:47 45.81042 21.32706 347 ft 18 kts 110°
2026-05-09 13:47 45.80991 21.32906 348 ft 23 kts 109°
2026-05-09 13:47 45.80937 21.33125 348 ft 22 kts 109°
2026-05-09 13:48 45.80885 21.33331 348 ft 21 kts 109°
2026-05-09 13:48 45.80865 21.33478 348 ft 12 kts 74°
2026-05-09 13:48 45.80906 21.33538 348 ft 5 kts 24°
2026-05-09 13:48 45.80910 21.33541 348 ft 0 kts 22°
2026-05-09 13:51 45.80911 21.33541 348 ft 2 kts 21°
2026-05-09 13:51 45.80961 21.33567 348 ft 12 kts 19°
2026-05-09 13:51 45.81009 21.33673 348 ft 14 kts 98°
2026-05-09 13:51 45.80970 21.33841 348 ft 23 kts 109°
2026-05-09 13:52 45.80901 21.34118 348 ft 33 kts 110°
2026-05-09 13:52 45.80825 21.34416 347 ft 30 kts 109°
2026-05-09 13:52 45.80754 21.34701 347 ft 31 kts 109°
2026-05-09 13:52 45.80681 21.34990 346 ft 30 kts 109°
2026-05-09 13:53 45.80612 21.35268 345 ft 29 kts 110°
2026-05-09 13:53 45.80545 21.35537 343 ft 28 kts 109°
2026-05-09 13:53 45.80500 21.35766 343 ft 17 kts 85°
2026-05-09 13:53 45.80494 21.35880 343 ft 5 kts 130°
2026-05-09 13:54 45.80468 21.35874 343 ft 5 kts 255°
2026-05-09 13:54 45.80476 21.35804 343 ft 14 kts 289°
2026-05-09 13:54 45.80593 21.35338 344 ft 85 kts 290°
2026-05-09 13:54 45.80872 21.34233 348 ft 148 kts 289°
2026-05-09 13:55 45.81267 21.32643 593 ft 177 kts 290°
2026-05-09 13:55 45.81660 21.31042 1307 ft 173 kts 291°
2026-05-09 13:55 45.82041 21.29394 1915 ft 177 kts 291°
2026-05-09 13:55 45.82426 21.27713 2403 ft 180 kts 292°
2026-05-09 13:56 45.82883 21.25986 2663 ft 192 kts 294°
2026-05-09 13:56 45.83380 21.24132 2935 ft 206 kts 293°
2026-05-09 13:56 45.83905 21.22120 3163 ft 225 kts 292°
2026-05-09 13:56 45.84453 21.19961 3669 ft 233 kts 292°
2026-05-09 13:57 45.84998 21.17783 4340 ft 233 kts 292°
2026-05-09 13:57 45.85547 21.15584 5028 ft 234 kts 292°
2026-05-09 13:57 45.86002 21.13347 5648 ft 241 kts 278°
2026-05-09 13:57 45.85701 21.10908 6010 ft 263 kts 245°
2026-05-09 13:58 45.84446 21.08927 6388 ft 284 kts 211°
2026-05-09 13:58 45.82526 21.08198 7000 ft 292 kts 177°
2026-05-09 13:58 45.80622 21.09061 7737 ft 291 kts 144°
2026-05-09 13:58 45.79280 21.11170 8505 ft 289 kts 120°
2026-05-09 13:59 45.78117 21.13515 9204 ft 295 kts 134°
2026-05-09 13:59 45.76351 21.14963 9843 ft 301 kts 166°
2026-05-09 13:59 45.74278 21.15205 10501 ft 305 kts 182°
2026-05-09 13:59 45.72105 21.15040 10864 ft 321 kts 184°
2026-05-09 14:00 45.69828 21.14874 11323 ft 332 kts 182°
2026-05-09 14:00 45.69039 21.14838 11544 ft 333 kts 182°
2026-05-09 14:00 45.65182 21.14776 12692 ft 337 kts 181°
2026-05-09 14:00 45.62828 21.14786 13333 ft 340 kts 180°
2026-05-09 14:01 45.60442 21.14808 13991 ft 343 kts 181°
2026-05-09 14:01 45.58065 21.14832 14628 ft 346 kts 181°
2026-05-09 14:01 45.55635 21.14856 15261 ft 348 kts 181°
2026-05-09 14:01 45.53225 21.14879 15883 ft 350 kts 181°
2026-05-09 14:02 45.50757 21.14901 16506 ft 353 kts 181°
2026-05-09 14:02 45.48318 21.14924 17107 ft 355 kts 181°
2026-05-09 14:02 45.45846 21.14955 17712 ft 357 kts 180°
2026-05-09 14:02 45.43370 21.15452 18282 ft 362 kts 167°
2026-05-09 14:03 45.40981 21.16738 18840 ft 367 kts 154°
2026-05-09 14:03 45.38740 21.18526 19398 ft 370 kts 151°
2026-05-09 14:03 45.36536 21.20392 19930 ft 373 kts 150°
2026-05-09 14:03 45.34308 21.22281 20449 ft 375 kts 150°
2026-05-09 14:04 45.32077 21.24149 20959 ft 377 kts 151°
2026-05-09 14:04 45.29791 21.26046 21472 ft 379 kts 151°
2026-05-09 14:04 45.27499 21.27921 21965 ft 381 kts 153°
2026-05-09 14:04 45.25010 21.29141 22385 ft 380 kts 174°
2026-05-09 14:05 45.22420 21.29022 22855 ft 377 kts 194°
2026-05-09 14:05 45.19992 21.27671 23315 ft 376 kts 210°
2026-05-09 14:05 45.17728 21.25797 23775 ft 378 kts 212°
2026-05-09 14:05 45.15464 21.23913 24184 ft 381 kts 212°
2026-05-09 14:06 45.13150 21.21998 24598 ft 384 kts 212°
2026-05-09 14:06 45.10865 21.20117 24986 ft 387 kts 212°
2026-05-09 14:06 45.08526 21.18200 25371 ft 390 kts 212°
2026-05-09 14:06 45.06155 21.16263 25773 ft 392 kts 212°
2026-05-09 14:07 45.03801 21.14342 26173 ft 394 kts 212°
2026-05-09 14:07 45.01403 21.12390 26562 ft 396 kts 212°
2026-05-09 14:07 44.99036 21.10465 26936 ft 398 kts 212°
2026-05-09 14:07 44.96625 21.08506 27299 ft 400 kts 212°
2026-05-09 14:08 44.94208 21.06545 27665 ft 402 kts 212°
2026-05-09 14:08 44.91788 21.04584 28020 ft 404 kts 213°
2026-05-09 14:08 44.89328 21.02592 28371 ft 406 kts 213°
2026-05-09 14:08 44.86883 21.00615 28729 ft 408 kts 213°
2026-05-09 14:09 44.84381 20.98595 29087 ft 409 kts 213°
2026-05-09 14:09 44.81899 20.96592 29438 ft 411 kts 213°
2026-05-09 14:09 44.79398 20.94575 29782 ft 412 kts 213°
2026-05-09 14:09 44.76924 20.92582 30087 ft 414 kts 213°
2026-05-09 14:10 44.71876 20.88521 30664 ft 418 kts 213°
2026-05-09 14:10 44.69346 20.86487 30951 ft 419 kts 213°
2026-05-09 14:10 44.66820 20.84459 31231 ft 420 kts 213°
2026-05-09 14:11 44.64270 20.82417 31504 ft 422 kts 213°
2026-05-09 14:11 44.61747 20.80397 31794 ft 423 kts 213°
2026-05-09 14:11 44.59188 20.78351 32059 ft 424 kts 213°
2026-05-09 14:11 44.56615 20.76296 32336 ft 425 kts 213°
2026-05-09 14:12 44.54045 20.74246 32684 ft 423 kts 213°
2026-05-09 14:12 44.51501 20.72220 33044 ft 422 kts 214°
2026-05-09 14:12 44.48956 20.70195 33390 ft 420 kts 214°
2026-05-09 14:12 44.46415 20.68177 33742 ft 419 kts 214°
2026-05-09 14:13 44.43895 20.66173 34056 ft 418 kts 214°
2026-05-09 14:14 44.26120 20.52102 35348 ft 422 kts 215°
2026-05-09 14:15 44.23563 20.50085 35512 ft 423 kts 215°
2026-05-09 14:15 44.21014 20.48079 35664 ft 424 kts 216°
2026-05-09 14:15 44.18425 20.46040 35826 ft 424 kts 216°
2026-05-09 14:15 44.15846 20.44011 35963 ft 425 kts 216°
2026-05-09 14:16 44.13265 20.41985 36056 ft 427 kts 216°
2026-05-09 14:16 44.08067 20.37911 36066 ft 428 kts 216°
2026-05-09 14:17 44.02905 20.33872 36073 ft 428 kts 216°
2026-05-09 14:17 43.97653 20.29772 36074 ft 428 kts 216°
2026-05-09 14:18 43.92435 20.25706 36079 ft 430 kts 216°
2026-05-09 14:18 43.87210 20.21640 36078 ft 430 kts 216°
2026-05-09 14:19 43.81960 20.17567 36088 ft 430 kts 217°
2026-05-09 14:19 43.76728 20.13514 36094 ft 432 kts 217°
2026-05-09 14:20 43.71522 20.09485 36096 ft 432 kts 217°
2026-05-09 14:20 43.66274 20.05439 36091 ft 431 kts 217°
2026-05-09 14:21 43.58418 19.99402 36103 ft 432 kts 217°
2026-05-09 14:21 43.53141 19.95363 36110 ft 433 kts 217°
2026-05-09 14:22 43.47899 19.91351 36112 ft 432 kts 217°
2026-05-09 14:22 43.42639 19.87333 36106 ft 432 kts 217°
2026-05-09 14:23 43.37407 19.83341 36112 ft 432 kts 217°
2026-05-09 14:23 43.32169 19.79350 36118 ft 433 kts 217°
2026-05-09 14:24 43.26881 19.75331 36121 ft 433 kts 217°
2026-05-09 14:24 43.21609 19.71334 36120 ft 434 kts 218°
2026-05-09 14:25 43.16325 19.67332 36119 ft 433 kts 217°
2026-05-09 14:25 43.11074 19.63368 36124 ft 433 kts 218°
2026-05-09 14:26 43.05779 19.59376 36127 ft 433 kts 218°
2026-05-09 14:26 43.00499 19.55401 36131 ft 433 kts 218°
2026-05-09 14:27 42.95222 19.51438 36133 ft 433 kts 218°
2026-05-09 14:27 42.89942 19.47482 36131 ft 433 kts 218°
2026-05-09 14:28 42.84662 19.43531 36126 ft 432 kts 218°
2026-05-09 14:28 42.79380 19.39587 36129 ft 432 kts 218°
2026-05-09 14:29 42.74090 19.35645 36128 ft 433 kts 218°
2026-05-09 14:29 42.68779 19.31695 36131 ft 433 kts 218°
2026-05-09 14:30 42.63493 19.27775 36128 ft 433 kts 218°
2026-05-09 14:30 42.58187 19.23841 36119 ft 434 kts 218°
2026-05-09 14:31 42.52885 19.19923 36107 ft 433 kts 218°
2026-05-09 14:31 42.47600 19.16026 36095 ft 431 kts 218°
2026-05-09 14:32 42.42289 19.12116 36430 ft 432 kts 218°
2026-05-09 14:32 42.39664 19.10187 35910 ft 430 kts 218°
2026-05-09 14:32 42.37003 19.08233 36017 ft 430 kts 218°
2026-05-09 14:33 42.31686 19.04328 36372 ft 430 kts 218°
2026-05-09 14:33 42.29058 19.02403 36195 ft 429 kts 218°
2026-05-09 14:33 42.26418 19.00471 36128 ft 429 kts 218°
2026-05-09 14:34 42.21134 18.96605 36089 ft 429 kts 218°
2026-05-09 14:34 42.15884 18.92774 36079 ft 428 kts 218°
2026-05-09 14:35 42.10857 18.88571 36069 ft 420 kts 224°
2026-05-09 14:35 42.06312 18.83786 36064 ft 413 kts 230°
2026-05-09 14:36 42.02123 18.78564 36062 ft 410 kts 232°
2026-05-09 14:36 41.97939 18.73297 36061 ft 411 kts 232°
2026-05-09 14:37 41.93785 18.68078 36057 ft 410 kts 232°
2026-05-09 14:37 41.89613 18.62851 36058 ft 410 kts 232°
2026-05-09 14:38 41.85427 18.57597 36058 ft 408 kts 232°
2026-05-09 14:38 41.81321 18.52350 36058 ft 407 kts 233°
2026-05-09 14:39 41.77247 18.47140 36057 ft 407 kts 233°
2026-05-09 14:39 41.73124 18.41878 36063 ft 407 kts 232°
2026-05-09 14:40 41.69016 18.36653 36059 ft 407 kts 232°
2026-05-09 14:40 41.64903 18.31429 36060 ft 407 kts 232°
2026-05-09 14:41 41.60778 18.26200 36058 ft 407 kts 232°
2026-05-09 14:41 41.56654 18.20982 36059 ft 408 kts 232°
2026-05-09 14:42 41.52544 18.15792 36060 ft 408 kts 232°
2026-05-09 14:42 41.48618 18.10380 36059 ft 401 kts 237°
2026-05-09 14:43 41.44969 18.04780 36058 ft 401 kts 237°
2026-05-09 14:43 41.41304 17.99167 36061 ft 401 kts 237°
2026-05-09 14:44 41.37628 17.93542 36062 ft 401 kts 237°
2026-05-09 14:44 41.33991 17.87980 36034 ft 401 kts 237°
2026-05-09 14:45 41.32154 17.85175 35383 ft 404 kts 237°
2026-05-09 14:45 41.30308 17.82359 34732 ft 403 kts 236°
2026-05-09 14:45 41.28458 17.79546 34135 ft 400 kts 236°
2026-05-09 14:45 41.26642 17.76785 33565 ft 396 kts 237°
2026-05-09 14:46 41.25005 17.73895 32901 ft 389 kts 244°
2026-05-09 14:46 41.23734 17.70787 32244 ft 377 kts 251°
2026-05-09 14:46 41.22836 17.67588 31640 ft 369 kts 258°
2026-05-09 14:46 41.22275 17.64316 31155 ft 364 kts 265°
2026-05-09 14:47 41.22044 17.60966 30631 ft 359 kts 271°
2026-05-09 14:47 41.22142 17.57694 30110 ft 355 kts 278°
2026-05-09 14:47 41.22553 17.54498 29610 ft 352 kts 284°
2026-05-09 14:47 41.23121 17.51348 29117 ft 350 kts 285°
2026-05-09 14:48 41.23698 17.48239 28600 ft 348 kts 285°
2026-05-09 14:48 41.24285 17.45115 28101 ft 345 kts 285°
2026-05-09 14:48 41.24863 17.42039 27619 ft 342 kts 285°
2026-05-09 14:48 41.25434 17.39004 27125 ft 340 kts 285°
2026-05-09 14:49 41.26005 17.35969 26634 ft 338 kts 285°
2026-05-09 14:49 41.26572 17.32955 26151 ft 336 kts 285°
2026-05-09 14:49 41.27139 17.29940 25656 ft 334 kts 285°
2026-05-09 14:49 41.27702 17.26948 25175 ft 332 kts 285°
2026-05-09 14:50 41.28264 17.23955 24707 ft 330 kts 285°
2026-05-09 14:50 41.28809 17.21043 24232 ft 329 kts 285°
2026-05-09 14:50 41.29362 17.18086 23755 ft 327 kts 285°
2026-05-09 14:50 41.29905 17.15183 23291 ft 326 kts 285°
2026-05-09 14:51 41.30452 17.12260 22833 ft 324 kts 285°
2026-05-09 14:51 41.30994 17.09343 22347 ft 324 kts 285°
2026-05-09 14:51 41.31533 17.06445 21888 ft 323 kts 285°
2026-05-09 14:51 41.32069 17.03560 21432 ft 322 kts 285°
2026-05-09 14:52 41.32604 17.00674 20968 ft 321 kts 285°
2026-05-09 14:52 41.33133 16.97817 20518 ft 320 kts 285°
2026-05-09 14:52 41.33667 16.94930 20060 ft 320 kts 285°
2026-05-09 14:52 41.34199 16.92051 19594 ft 320 kts 285°
2026-05-09 14:53 41.34725 16.89200 19147 ft 320 kts 285°
2026-05-09 14:53 41.35253 16.86325 18693 ft 320 kts 285°
2026-05-09 14:53 41.35784 16.83432 18229 ft 320 kts 285°
2026-05-09 14:53 41.36308 16.80577 17775 ft 320 kts 285°
2026-05-09 14:54 41.36834 16.77710 17341 ft 320 kts 285°
2026-05-09 14:54 41.37360 16.74829 16884 ft 320 kts 285°
2026-05-09 14:54 41.37885 16.71952 16432 ft 319 kts 285°
2026-05-09 14:54 41.38407 16.69093 15992 ft 319 kts 285°
2026-05-09 14:55 41.38924 16.66243 15564 ft 319 kts 285°
2026-05-09 14:55 41.39104 16.63309 15080 ft 324 kts 265°
2026-05-09 14:55 41.38355 16.60485 14635 ft 331 kts 243°
2026-05-09 14:55 41.36776 16.58203 14170 ft 340 kts 219°
2026-05-09 14:56 41.34623 16.56942 13726 ft 348 kts 195°
2026-05-09 14:56 41.32181 16.56960 13268 ft 355 kts 169°
2026-05-09 14:56 41.29877 16.58042 12863 ft 355 kts 160°
2026-05-09 14:56 41.27594 16.59248 12695 ft 346 kts 160°
2026-05-09 14:57 41.25433 16.60374 12552 ft 339 kts 161°
2026-05-09 14:57 41.23251 16.61488 12365 ft 331 kts 161°
2026-05-09 14:57 41.21137 16.62555 12256 ft 320 kts 161°
2026-05-09 14:57 41.19077 16.63586 12047 ft 313 kts 161°
2026-05-09 14:58 41.17025 16.64606 11777 ft 309 kts 161°
2026-05-09 14:58 41.15001 16.65609 11512 ft 305 kts 161°
2026-05-09 14:58 41.13032 16.66587 11257 ft 300 kts 161°
2026-05-09 14:58 41.11095 16.67548 11005 ft 296 kts 161°
2026-05-09 14:59 41.09170 16.68502 10754 ft 292 kts 161°
2026-05-09 14:59 41.07260 16.69448 10504 ft 288 kts 161°
2026-05-09 14:59 41.05402 16.70368 10246 ft 284 kts 162°
2026-05-09 14:59 41.03501 16.70910 9891 ft 279 kts 186°
2026-05-09 15:00 41.01706 16.70095 9549 ft 268 kts 221°
2026-05-09 15:00 41.00631 16.68183 9222 ft 256 kts 253°
2026-05-09 15:00 41.00109 16.65954 9083 ft 255 kts 256°
2026-05-09 15:00 40.99567 16.63717 9082 ft 256 kts 254°
2026-05-09 15:01 40.98369 16.59266 9078 ft 256 kts 252°
2026-05-09 15:01 40.97749 16.57071 9082 ft 255 kts 252°
2026-05-09 15:01 40.97138 16.54932 9069 ft 242 kts 252°
2026-05-09 15:02 40.96552 16.52883 9073 ft 237 kts 252°
2026-05-09 15:02 40.95966 16.50831 9072 ft 237 kts 252°
2026-05-09 15:02 40.95387 16.48802 9080 ft 237 kts 252°
2026-05-09 15:02 40.94804 16.46763 9089 ft 236 kts 252°
2026-05-09 15:03 40.94205 16.44658 9105 ft 261 kts 252°
2026-05-09 15:03 40.93539 16.42322 9106 ft 275 kts 252°
2026-05-09 15:03 40.92854 16.39941 9102 ft 276 kts 252°
2026-05-09 15:03 40.92171 16.37572 9093 ft 277 kts 252°
2026-05-09 15:04 40.91475 16.35159 9092 ft 277 kts 252°
2026-05-09 15:04 40.90787 16.32779 9100 ft 277 kts 251°
2026-05-09 15:06 40.91010 16.17762 9104 ft 277 kts 346°
2026-05-09 15:06 40.92918 16.17238 9098 ft 276 kts 345°
2026-05-09 15:06 40.94778 16.16661 9087 ft 272 kts 349°
2026-05-09 15:06 40.96615 16.16959 9068 ft 263 kts 23°
2026-05-09 15:07 40.97959 16.18522 8876 ft 263 kts 57°
2026-05-09 15:07 40.98599 16.20796 8641 ft 262 kts 73°
2026-05-09 15:07 40.99024 16.23128 8414 ft 257 kts 73°
2026-05-09 15:07 40.99498 16.25374 8180 ft 253 kts 70°
2026-05-09 15:08 41.00048 16.27582 7943 ft 248 kts 68°
2026-05-09 15:08 41.01223 16.31818 7436 ft 242 kts 66°
2026-05-09 15:08 41.01820 16.33897 7149 ft 241 kts 66°
2026-05-09 15:09 41.02418 16.35971 6851 ft 240 kts 66°
2026-05-09 15:10 41.06657 16.50429 3802 ft 237 kts 68°
2026-05-09 15:11 41.07226 16.52481 3496 ft 239 kts 68°
2026-05-09 15:11 41.07806 16.54566 3178 ft 239 kts 68°
2026-05-09 15:11 41.08373 16.56599 2860 ft 232 kts 67°
2026-05-09 15:11 41.08923 16.58569 2558 ft 222 kts 67°
2026-05-09 15:12 41.09439 16.60412 2274 ft 205 kts 67°
2026-05-09 15:12 41.09913 16.62105 2094 ft 185 kts 67°
2026-05-09 15:12 41.10349 16.63654 1849 ft 171 kts 66°
2026-05-09 15:12 41.10752 16.65086 1612 ft 161 kts 67°
2026-05-09 15:13 41.11136 16.66447 1377 ft 151 kts 67°
2026-05-09 15:13 41.11492 16.67716 1148 ft 140 kts 66°
2026-05-09 15:13 41.11838 16.68905 964 ft 137 kts 66°
2026-05-09 15:13 41.12157 16.70089 818 ft 137 kts 68°
2026-05-09 15:14 41.12497 16.71275 642 ft 136 kts 66°
2026-05-09 15:14 41.12828 16.72441 477 ft 136 kts 67°
2026-05-09 15:14 41.13158 16.73616 299 ft 136 kts 67°
2026-05-09 15:14 41.13488 16.74774 181 ft 125 kts 68°
2026-05-09 15:15 41.13737 16.75650 155 ft 77 kts 69°
2026-05-09 15:15 41.13845 16.76028 147 ft 61 kts 69°
2026-05-09 15:15 41.13981 16.76509 137 ft 15 kts 70°
2026-05-09 15:15 41.13996 16.76638 135 ft 11 kts 107°
2026-05-09 15:16 41.13963 16.76741 134 ft 13 kts 113°
2026-05-09 15:16 41.13940 16.76804 133 ft 5 kts 134°
2026-05-09 15:16 41.13905 16.76819 133 ft 5 kts 188°
2026-05-09 15:16 41.13878 16.76797 134 ft 3 kts 230°
2026-05-09 15:17 41.13851 16.76771 134 ft 7 kts 199°
2026-05-09 15:17 41.13781 16.76776 135 ft 12 kts 167°
2026-05-09 15:17 41.13718 16.76806 135 ft 4 kts 161°
2026-05-09 15:17 41.13693 16.76798 135 ft 3 kts 242°
2026-05-09 15:18 41.13692 16.76784 136 ft 0 kts 292°